sat.trackr.live / text

‹ back to catalog

STARLINK-4750

NORAD 53841 · 2022-114Z

PAYLOAD ACTIVE UNKNOWN

§ Identity

Operator
Country
US
Launch date
2022-09-19
Launch site
AFETR
Launch vehicle
Mass (kg)
RCS (m²)

Purposes: comms

External: N2YO · Heavens-Above · Gunter

§ Orbital elements

Epoch: 2026-05-25T03:44:56.207040Z

Period
95.44 min
Inclination
53.2125°
Eccentricity
0.0001099
Mean motion
15.08850577 rev/d
Perigee alt
539.0 km
Apogee alt
540.5 km
Semi-major
6,917.8 km
B*
1.3172e-4
RAAN
310.9773°
Arg perigee
123.0727°
Mean anomaly
237.0371°
Rev number
20,451

§ Raw data

STARLINK-47501 53841U 22114Z   26145.15620610  .00001810  00000+0  13172-3 0  99962 53841  53.2125 310.9773 0001099 123.0727 237.0371 15.08850577204513

JSON: /api/v1/satellites/53841 · /tle

For live sub-satellite position, see the globe view (requires WebGL).

§ Visibility from observer

Set your observer location to see the next 7 days of passes ≥ 10°. The values pass through the URL so the page stays shareable.

No JS? Fill the form by hand. The geolocation button needs JavaScript.